Location: Ajisawe
(8.4333°N, 4.3833°E)
Time: 13:40:41
(UTC+00:00)

Courier 1B Rocket - Pass Details

Date: 26 April 2021
Orbit: 920 x 1202 km, 28.2° (Epoch: 07 May)

Event Time Altitude Azimuth Distance (km) Brightness Sun altitude
Rises 16:31:15 0° 285° (WNW) 3,543 9.6 18.6°
Reaches altitude 10° 16:34:46 10° 304° (NW) 2,603 8.8 17.8°
Maximum altitude 16:38:49 18° 345° (NNW) 2,119 7.3 16.8°
Drops below altitude 10° 16:42:57 10° 26° (NNE) 2,655 7.2 15.8°
Sets 16:46:36 0° 45° (NE) 3,643 7.7 14.9°
